When you browse on this site, cookies collect data to enhance your experience and personalize the content and advertising you see.
Visit our Privacy Policy to learn more. By continuing to use the site, you agree to this use of cookies and data.
  • In Austria
  • List of Countries
  • For 7 days
  • Water Temperature
  • Weather Map
  • News
  • Weather Widgets
  • user-avatar
    Login

    Hourly Weather Inchhon

    Today, 25 May, Monday

    Time Temperature Precipitation Wind Pressure Humidity
    00:00 +16°C° 0 mm 2 mps 757 mmHg 78%
    01:00 +16°C° 0 mm 1 mps 757 mmHg 79%
    02:00 +16°C° 0 mm 1 mps 757 mmHg 80%
    03:00 +16°C° 0 mm 1 mps 757 mmHg 80%
    04:00 +16°C° 0 mm 1 mps 758 mmHg 80%
    05:00 +16°C° 0 mm 1 mps 758 mmHg 80%
    06:00 +18°C° 0 mm 1 mps 758 mmHg 75%
    07:00 +19°C° 0 mm 1 mps 757 mmHg 70%
    08:00 +18°C° 0 mm 0 mps 758 mmHg 62%
    09:00 +21°C° 0 mm 1 mps 757 mmHg 60%
    10:00 +20°C° 0 mm 2 mps 757 mmHg 57%
    11:00 +21°C° 0 mm 2 mps 757 mmHg 54%
    12:00 +21°C° 0 mm 3 mps 757 mmHg 54%
    13:00 +21°C° 0 mm 4 mps 757 mmHg 54%
    14:00 +21°C° 0 mm 4 mps 756 mmHg 54%
    15:00 +21°C° 0 mm 4 mps 756 mmHg 56%
    16:00 +20°C° 0 mm 4 mps 756 mmHg 58%
    17:00 +20°C° 0 mm 4 mps 756 mmHg 60%
    18:00 +19°C° 0 mm 3 mps 756 mmHg 62%
    19:00 +19°C° 0 mm 3 mps 756 mmHg 65%
    20:00 +18°C° 0 mm 2 mps 757 mmHg 67%
    21:00 +18°C° 0 mm 2 mps 757 mmHg 67%
    22:00 +19°C° 0 mm 1 mps 757 mmHg 68%
    23:00 +18°C° 0 mm 1 mps 757 mmHg 68%

    Tomorrow, 26 May, Tuesday

    Time Temperature Precipitation Wind Pressure Humidity
    00:00 +18°C° 0 mm 1 mps 757 mmHg 69%
    01:00 +18°C° 0 mm 1 mps 756 mmHg 70%
    02:00 +16°C° 0 mm 0 mps 756 mmHg 70%
    03:00 +16°C° 0 mm 0 mps 756 mmHg 71%
    04:00 +16°C° 0 mm 0 mps 756 mmHg 71%
    05:00 +16°C° 0 mm 0 mps 756 mmHg 72%
    06:00 +19°C° 0 mm 1 mps 756 mmHg 67%
    07:00 +20°C° 0 mm 1 mps 756 mmHg 61%
    08:00 +21°C° 0 mm 1 mps 756 mmHg 56%
    09:00 +21°C° 0 mm 2 mps 756 mmHg 52%
    10:00 +23°C° 0 mm 2 mps 755 mmHg 48%
    11:00 +24°C° 0 mm 2 mps 755 mmHg 45%
    12:00 +23°C° 0 mm 4 mps 755 mmHg 45%
    13:00 +23°C° 0 mm 5 mps 754 mmHg 46%
    14:00 +23°C° 0 mm 6 mps 754 mmHg 47%
    15:00 +21°C° 0.3 mm 5 mps 754 mmHg 53%
    16:00 +20°C° 0.3 mm 4 mps 754 mmHg 58%
    17:00 +19°C° 0.3 mm 2 mps 754 mmHg 64%
    18:00 +18°C° 0.1 mm 3 mps 754 mmHg 69%
    19:00 +18°C° 0.1 mm 4 mps 754 mmHg 74%
    20:00 +16°C° 0.1 mm 5 mps 755 mmHg 79%
    21:00 +17°C° 0.1 mm 4 mps 755 mmHg 79%
    22:00 +17°C° 0.1 mm 4 mps 755 mmHg 79%
    23:00 +17°C° 0.1 mm 3 mps 755 mmHg 79%

    Day after tomorrow, 27 May, Wednesday

    Time Temperature Precipitation Wind Pressure Humidity
    00:00 +16°C° 0 mm 3 mps 755 mmHg 77%
    01:00 +16°C° 0 mm 3 mps 755 mmHg 75%
    02:00 +16°C° 0 mm 3 mps 755 mmHg 74%
    03:00 +16°C° 0 mm 3 mps 755 mmHg 73%
    04:00 +15°C° 0 mm 2 mps 755 mmHg 72%
    05:00 +15°C° 0 mm 2 mps 756 mmHg 71%
    06:00 +16°C° 0 mm 2 mps 756 mmHg 67%
    07:00 +17°C° 0 mm 2 mps 756 mmHg 62%
    08:00 +19°C° 0 mm 2 mps 756 mmHg 57%
    09:00 +20°C° 0 mm 2 mps 756 mmHg 51%
    10:00 +21°C° 0 mm 3 mps 756 mmHg 45%
    11:00 +24°C° 0 mm 3 mps 755 mmHg 39%
    12:00 +23°C° 0 mm 4 mps 755 mmHg 40%
    13:00 +23°C° 0 mm 5 mps 755 mmHg 41%
    14:00 +23°C° 0 mm 5 mps 755 mmHg 43%
    15:00 +22°C° 0 mm 5 mps 755 mmHg 45%
    16:00 +22°C° 0 mm 5 mps 755 mmHg 47%
    17:00 +21°C° 0 mm 5 mps 755 mmHg 49%
    18:00 +20°C° 0 mm 4 mps 755 mmHg 50%
    19:00 +20°C° 0 mm 3 mps 755 mmHg 51%
    20:00 +19°C° 0 mm 2 mps 756 mmHg 52%
    21:00 +19°C° 0 mm 2 mps 756 mmHg 54%
    22:00 +18°C° 0 mm 2 mps 756 mmHg 56%
    23:00 +19°C° 0 mm 1 mps 756 mmHg 58%

    28 May, Thursday

    Time Temperature Precipitation Wind Pressure Humidity
    00:00 +19°C° 0 mm 1 mps 756 mmHg 60%
    01:00 +18°C° 0 mm 1 mps 756 mmHg 61%
    02:00 +18°C° 0 mm 1 mps 756 mmHg 63%
    03:00 +18°C° 0 mm 1 mps 756 mmHg 63%
    04:00 +18°C° 0 mm 1 mps 756 mmHg 64%
    05:00 +18°C° 0 mm 1 mps 756 mmHg 65%
    06:00 +18°C° 0 mm 2 mps 756 mmHg 58%
    07:00 +19°C° 0 mm 2 mps 756 mmHg 51%
    08:00 +20°C° 0 mm 2 mps 756 mmHg 45%
    09:00 +22°C° 0 mm 3 mps 755 mmHg 41%
    10:00 +24°C° 0 mm 3 mps 755 mmHg 38%
    11:00 +25°C° 0 mm 3 mps 755 mmHg 35%
    12:00 +24°C° 0.1 mm 3 mps 755 mmHg 40%
    13:00 +23°C° 0.1 mm 4 mps 755 mmHg 46%
    14:00 +22°C° 0.1 mm 5 mps 754 mmHg 51%
    15:00 +21°C° 0 mm 4 mps 754 mmHg 57%
    16:00 +21°C° 0 mm 4 mps 754 mmHg 64%
    17:00 +20°C° 0 mm 4 mps 754 mmHg 71%
    18:00 +19°C° 0 mm 3 mps 755 mmHg 73%
    19:00 +19°C° 0 mm 2 mps 756 mmHg 76%
    20:00 +19°C° 0 mm 1 mps 756 mmHg 79%
    21:00 +19°C° 0 mm 1 mps 756 mmHg 80%
    22:00 +19°C° 0 mm 1 mps 757 mmHg 82%
    23:00 +19°C° 0 mm 1 mps 757 mmHg 83%

    29 May, Friday

    Time Temperature Precipitation Wind Pressure Humidity
    00:00 +18°C° 0 mm 1 mps 757 mmHg 84%
    01:00 +16°C° 0 mm 0 mps 757 mmHg 85%
    02:00 +16°C° 0 mm 0 mps 757 mmHg 86%
    03:00 +16°C° 0 mm 0 mps 757 mmHg 87%
    04:00 +16°C° 0 mm 0 mps 758 mmHg 87%
    05:00 +18°C° 0 mm 1 mps 758 mmHg 87%
    06:00 +19°C° 0 mm 1 mps 758 mmHg 81%
    07:00 +20°C° 0 mm 1 mps 759 mmHg 76%
    08:00 +21°C° 0 mm 1 mps 759 mmHg 70%
    09:00 +22°C° 0 mm 1 mps 759 mmHg 64%
    10:00 +23°C° 0 mm 1 mps 758 mmHg 58%
    11:00 +25°C° 0 mm 1 mps 758 mmHg 53%
    12:00 +25°C° 0 mm 2 mps 758 mmHg 50%
    13:00 +26°C° 0 mm 2 mps 758 mmHg 47%
    14:00 +27°C° 0 mm 2 mps 757 mmHg 44%
    15:00 +26°C° 0 mm 2 mps 757 mmHg 43%
    16:00 +26°C° 0 mm 2 mps 757 mmHg 43%
    17:00 +26°C° 0 mm 2 mps 757 mmHg 43%
    18:00 +25°C° 0 mm 2 mps 757 mmHg 44%
    19:00 +24°C° 0 mm 1 mps 758 mmHg 46%
    20:00 +23°C° 0 mm 1 mps 758 mmHg 47%
    21:00 +21°C° 0 mm 0 mps 759 mmHg 48%
    22:00 +20°C° 0 mm 0 mps 759 mmHg 50%
    23:00 +20°C° 0 mm 0 mps 759 mmHg 51%

    30 May, Saturday

    Time Temperature Precipitation Wind Pressure Humidity
    00:00 +22°C° 0 mm 1 mps 759 mmHg 53%
    01:00 +21°C° 0 mm 1 mps 759 mmHg 55%
    02:00 +21°C° 0 mm 1 mps 759 mmHg 57%
    03:00 +21°C° 0 mm 1 mps 759 mmHg 58%
    04:00 +20°C° 0 mm 2 mps 759 mmHg 60%
    05:00 +19°C° 0 mm 2 mps 759 mmHg 62%
    06:00 +20°C° 0 mm 2 mps 759 mmHg 57%
    07:00 +21°C° 0 mm 2 mps 759 mmHg 52%
    08:00 +23°C° 0 mm 2 mps 759 mmHg 47%
    09:00 +24°C° 0 mm 3 mps 759 mmHg 47%
    10:00 +25°C° 0 mm 3 mps 759 mmHg 47%
    11:00 +26°C° 0 mm 4 mps 759 mmHg 46%
    12:00 +26°C° 0 mm 4 mps 759 mmHg 48%
    13:00 +25°C° 0 mm 4 mps 759 mmHg 49%
    14:00 +25°C° 0 mm 4 mps 758 mmHg 50%
    15:00 +25°C° 0 mm 4 mps 758 mmHg 53%
    16:00 +23°C° 0 mm 4 mps 758 mmHg 55%
    17:00 +23°C° 0 mm 4 mps 758 mmHg 58%
    18:00 +23°C° 0 mm 4 mps 758 mmHg 59%
    19:00 +22°C° 0 mm 3 mps 759 mmHg 61%
    20:00 +22°C° 0 mm 3 mps 759 mmHg 63%
    21:00 +22°C° 0 mm 3 mps 759 mmHg 63%
    22:00 +22°C° 0 mm 3 mps 759 mmHg 63%
    23:00 +22°C° 0 mm 3 mps 760 mmHg 64%
    Show more